Time,TemperatureF,DewpointF,PressureIn,WindDirection,WindDirectionDegrees,WindSpeedMPH,WindSpeedGustMPH,Humidity,HourlyPrecipIn,Conditions,Clouds,dailyrainin,SoftwareType,DateUTC
2013-03-17 00:02:00,14.0,-6.0,-100.00,NNE,30,1.0,2.0,39,0.00,,,0.00,,2013-03-17 08:02:00,
2013-03-17 00:22:00,14.0,-6.0,-100.00,ENE,75,1.0,3.0,39,0.00,,,0.00,,2013-03-17 08:22:00,
2013-03-17 00:32:00,14.0,-6.0,-100.00,ENE,75,1.0,3.0,39,0.00,,,0.00,,2013-03-17 08:32:00,
2013-03-17 00:42:00,14.0,-6.0,-100.00,ENE,75,1.0,3.0,39,0.00,,,0.00,,2013-03-17 08:42:00,
2013-03-17 00:52:00,14.0,-6.0,-100.00,ENE,60,2.0,4.0,40,0.00,,,0.00,,2013-03-17 08:52:00,
2013-03-17 01:52:00,14.0,-6.0,-100.00,East,85,2.0,6.0,39,0.00,,,0.00,,2013-03-17 09:52:00,
2013-03-17 02:23:00,12.0,-7.0,-100.00,East,85,2.0,5.0,40,0.00,,,0.00,,2013-03-17 10:23:00,
2013-03-17 02:52:00,11.0,-8.0,-100.00,East,85,2.0,7.0,42,0.00,,,0.00,,2013-03-17 10:52:00,
2013-03-17 03:02:00,11.0,-8.0,-100.00,East,85,2.0,7.0,42,0.00,,,0.00,,2013-03-17 11:02:00,
2013-03-17 03:12:00,11.0,-8.0,-100.00,East,85,2.0,7.0,42,0.00,,,0.00,,2013-03-17 11:12:00,
2013-03-17 03:22:00,10.0,-8.0,-100.00,ESE,105,3.0,6.0,43,0.00,,,0.00,,2013-03-17 11:22:00,
2013-03-17 03:32:00,10.0,-8.0,-100.00,ESE,105,3.0,6.0,43,0.00,,,0.00,,2013-03-17 11:32:00,
2013-03-17 03:42:00,10.0,-8.0,-100.00,ESE,105,3.0,6.0,43,0.00,,,0.00,,2013-03-17 11:42:00,
2013-03-17 03:51:00,10.0,-8.0,-100.00,ESE,105,4.0,7.0,43,0.00,,,0.00,,2013-03-17 11:51:00,
2013-03-17 04:02:00,10.0,-8.0,-100.00,ESE,105,4.0,7.0,43,0.00,,,0.00,,2013-03-17 12:02:00,
2013-03-17 04:22:00,11.0,-7.0,-100.00,ESE,110,4.0,6.0,43,0.00,,,0.00,,2013-03-17 12:22:00,
2013-03-17 04:52:00,11.0,-7.0,-100.00,ESE,115,4.0,7.0,43,0.00,,,0.00,,2013-03-17 12:52:00,
2013-03-17 05:22:00,11.0,-7.0,-100.00,ESE,115,4.0,7.0,43,0.00,,,0.00,,2013-03-17 13:22:00,
2013-03-17 05:52:00,10.0,-8.0,-100.00,ESE,105,4.0,7.0,43,0.00,,,0.00,,2013-03-17 13:52:00,
2013-03-17 06:22:00,9.0,-8.0,-100.00,SE,125,4.0,7.0,44,0.00,,,0.00,,2013-03-17 14:22:00,
2013-03-17 06:52:00,8.0,-8.0,-100.00,ESE,120,4.0,6.0,46,0.00,,,0.00,,2013-03-17 14:52:00,
2013-03-17 07:22:00,7.0,-9.0,-100.00,ESE,115,3.0,7.0,48,0.00,,,0.00,,2013-03-17 15:22:00,
2013-03-17 07:42:00,7.0,-9.0,-100.00,ESE,115,3.0,7.0,48,0.00,,,0.00,,2013-03-17 15:42:00,
2013-03-17 07:52:00,7.0,-8.0,-100.00,ESE,120,3.0,6.0,50,0.00,,,0.00,,2013-03-17 15:52:00,
2013-03-17 08:22:00,7.0,-8.0,-100.00,East,100,1.0,4.0,51,0.00,,,0.00,,2013-03-17 16:22:00,
2013-03-17 08:52:00,6.0,-8.0,-100.00,NW,305,0.0,1.0,53,0.00,,,0.00,,2013-03-17 16:52:00,
2013-03-17 09:22:00,6.0,-7.0,-100.00,NW,325,1.0,1.0,54,0.00,,,0.00,,2013-03-17 17:22:00,
2013-03-17 09:52:00,7.0,-7.0,-100.00,SSE,165,2.0,3.0,53,0.00,,,0.00,,2013-03-17 17:52:00,
2013-03-17 10:22:00,7.0,-7.0,-100.00,SSE,160,2.0,3.0,52,0.00,,,0.00,,2013-03-17 18:22:00,
2013-03-17 10:42:00,7.0,-7.0,-100.00,SSE,160,2.0,3.0,52,0.00,,,0.00,,2013-03-17 18:42:00,
2013-03-17 10:52:00,8.0,-6.0,-100.00,South,170,1.0,3.0,51,0.00,,,0.00,,2013-03-17 18:52:00,
2013-03-17 11:02:00,8.0,-6.0,-100.00,South,170,1.0,3.0,51,0.00,,,0.00,,2013-03-17 19:02:00,
2013-03-17 11:12:00,8.0,-6.0,-100.00,South,170,1.0,3.0,51,0.00,,,0.00,,2013-03-17 19:12:00,
2013-03-17 11:22:00,9.0,-6.0,-100.00,South,185,1.0,2.0,50,0.00,,,0.00,,2013-03-17 19:22:00,
2013-03-17 11:32:00,9.0,-6.0,-100.00,South,185,1.0,2.0,50,0.00,,,0.00,,2013-03-17 19:32:00,
2013-03-17 11:41:00,9.0,-6.0,-100.00,South,185,1.0,2.0,50,0.00,,,0.00,,2013-03-17 19:41:00,
2013-03-17 11:53:00,10.0,-5.0,-100.00,SSW,200,1.0,4.0,49,0.00,,,0.00,,2013-03-17 19:53:00,
2013-03-17 12:02:00,10.0,-5.0,-100.00,SSW,200,1.0,4.0,49,0.00,,,0.00,,2013-03-17 20:02:00,
2013-03-17 12:12:00,10.0,-5.0,-100.00,SSW,200,1.0,4.0,49,0.00,,,0.00,,2013-03-17 20:12:00,
2013-03-17 12:22:00,11.0,-5.0,-100.00,SSE,155,1.0,4.0,47,0.00,,,0.00,,2013-03-17 20:22:00,
2013-03-17 12:32:00,11.0,-5.0,-100.00,SSE,155,1.0,4.0,47,0.00,,,0.00,,2013-03-17 20:32:00,
2013-03-17 12:42:00,11.0,-5.0,-100.00,SSE,155,1.0,4.0,47,0.00,,,0.00,,2013-03-17 20:42:00,
2013-03-17 12:52:00,12.0,-5.0,-100.00,WSW,240,1.0,4.0,46,0.00,,,0.00,,2013-03-17 20:52:00,
2013-03-17 13:02:00,12.0,-5.0,-100.00,WSW,240,1.0,4.0,46,0.00,,,0.00,,2013-03-17 21:02:00,
2013-03-17 13:12:00,12.0,-5.0,-100.00,WSW,240,1.0,4.0,46,0.00,,,0.00,,2013-03-17 21:12:00,
2013-03-17 13:22:00,11.0,-5.0,-100.00,WSW,245,2.0,4.0,46,0.00,,,0.00,,2013-03-17 21:22:00,
2013-03-17 13:33:00,11.0,-5.0,-100.00,WSW,245,2.0,4.0,46,0.00,,,0.00,,2013-03-17 21:33:00,
2013-03-17 13:42:00,11.0,-5.0,-100.00,WSW,245,2.0,4.0,46,0.00,,,0.00,,2013-03-17 21:42:00,
2013-03-17 13:52:00,12.0,-5.0,-100.00,West,275,2.0,4.0,46,0.00,,,0.00,,2013-03-17 21:52:00,
2013-03-17 14:03:00,12.0,-5.0,-100.00,West,275,2.0,4.0,46,0.00,,,0.00,,2013-03-17 22:03:00,
2013-03-17 14:12:00,12.0,-5.0,-100.00,West,275,2.0,4.0,46,0.00,,,0.00,,2013-03-17 22:12:00,
2013-03-17 14:22:00,12.0,-5.0,-100.00,WSW,255,2.0,5.0,45,0.00,,,0.00,,2013-03-17 22:22:00,
2013-03-17 14:33:00,12.0,-5.0,-100.00,WSW,255,2.0,5.0,45,0.00,,,0.00,,2013-03-17 22:33:00,
2013-03-17 14:42:00,12.0,-5.0,-100.00,WSW,255,2.0,5.0,45,0.00,,,0.00,,2013-03-17 22:42:00,
2013-03-17 14:52:00,14.0,-4.0,-100.00,West,280,2.0,6.0,43,0.00,,,0.00,,2013-03-17 22:52:00,
2013-03-17 15:02:00,14.0,-4.0,-100.00,West,280,2.0,6.0,43,0.00,,,0.00,,2013-03-17 23:02:00,
2013-03-17 15:12:00,14.0,-4.0,-100.00,West,280,2.0,6.0,43,0.00,,,0.00,,2013-03-17 23:12:00,
2013-03-17 15:22:00,16.0,-3.0,-100.00,WSW,240,1.0,4.0,41,0.00,,,0.00,,2013-03-17 23:22:00,
2013-03-17 15:32:00,16.0,-3.0,-100.00,WSW,240,1.0,4.0,41,0.00,,,0.00,,2013-03-17 23:32:00,
2013-03-17 15:42:00,16.0,-3.0,-100.00,WSW,240,1.0,4.0,41,0.00,,,0.00,,2013-03-17 23:42:00,
2013-03-17 15:52:00,17.0,-3.0,-100.00,WSW,255,1.0,4.0,40,0.00,,,0.00,,2013-03-17 23:52:00,
2013-03-17 16:03:00,17.0,-3.0,-100.00,WSW,255,1.0,4.0,40,0.00,,,0.00,,2013-03-18 00:03:00,
2013-03-17 16:12:00,17.0,-3.0,-100.00,WSW,255,1.0,4.0,40,0.00,,,0.00,,2013-03-18 00:12:00,
2013-03-17 16:22:00,18.0,-2.0,-100.00,North,0,1.0,2.0,38,0.00,,,0.00,,2013-03-18 00:22:00,
2013-03-17 16:32:00,18.0,-2.0,-100.00,North,0,1.0,2.0,38,0.00,,,0.00,,2013-03-18 00:32:00,
2013-03-17 16:42:00,18.0,-2.0,-100.00,North,0,1.0,2.0,38,0.00,,,0.00,,2013-03-18 00:42:00,
2013-03-17 16:52:00,18.0,-3.0,-100.00,North,350,3.0,6.0,38,0.00,,,0.00,,2013-03-18 00:52:00,
2013-03-17 17:01:00,18.0,-3.0,-100.00,North,350,3.0,6.0,38,0.00,,,0.00,,2013-03-18 01:01:00,
2013-03-17 17:12:00,18.0,-3.0,-100.00,North,350,3.0,6.0,38,0.00,,,0.00,,2013-03-18 01:12:00,
2013-03-17 17:22:00,17.0,-4.0,-100.00,North,350,4.0,6.0,38,0.00,,,0.00,,2013-03-18 01:22:00,
2013-03-17 17:32:00,17.0,-4.0,-100.00,North,350,4.0,6.0,38,0.00,,,0.00,,2013-03-18 01:32:00,
2013-03-17 17:42:00,17.0,-4.0,-100.00,North,350,4.0,6.0,38,0.00,,,0.00,,2013-03-18 01:42:00,
2013-03-17 17:52:00,16.0,-5.0,-100.00,NNW,335,2.0,6.0,38,0.00,,,0.00,,2013-03-18 01:52:00,
2013-03-17 18:02:00,16.0,-5.0,-100.00,NNW,335,2.0,6.0,38,0.00,,,0.00,,2013-03-18 02:02:00,
2013-03-17 18:12:00,16.0,-5.0,-100.00,NNW,335,2.0,6.0,38,0.00,,,0.00,,2013-03-18 02:12:00,
2013-03-17 18:22:00,15.0,-6.0,-100.00,NW,315,2.0,6.0,39,0.00,,,0.00,,2013-03-18 02:22:00,
2013-03-17 18:32:00,15.0,-6.0,-100.00,NW,315,2.0,6.0,39,0.00,,,0.00,,2013-03-18 02:32:00,
2013-03-17 18:42:00,15.0,-6.0,-100.00,NW,315,2.0,6.0,39,0.00,,,0.00,,2013-03-18 02:42:00,
2013-03-17 18:52:00,14.0,-7.0,-100.00,NNW,330,2.0,6.0,39,0.00,,,0.00,,2013-03-18 02:52:00,
2013-03-17 19:02:00,14.0,-7.0,-100.00,NNW,330,2.0,6.0,39,0.00,,,0.00,,2013-03-18 03:02:00,
2013-03-17 19:11:00,14.0,-7.0,-100.00,NNW,330,2.0,6.0,39,0.00,,,0.00,,2013-03-18 03:11:00,
2013-03-17 19:22:00,13.0,-7.0,-100.00,NW,325,3.0,5.0,39,0.00,,,0.00,,2013-03-18 03:22:00,
2013-03-17 19:33:00,13.0,-7.0,-100.00,NW,325,3.0,5.0,39,0.00,,,0.00,,2013-03-18 03:33:00,
2013-03-17 19:42:00,13.0,-7.0,-100.00,NW,325,3.0,5.0,39,0.00,,,0.00,,2013-03-18 03:42:00,
2013-03-17 19:52:00,11.0,-9.0,-100.00,NNW,345,5.0,7.0,39,0.00,,,0.00,,2013-03-18 03:52:00,
2013-03-17 20:02:00,11.0,-9.0,-100.00,NNW,345,5.0,7.0,39,0.00,,,0.00,,2013-03-18 04:02:00,
2013-03-17 20:12:00,11.0,-9.0,-100.00,NNW,345,5.0,7.0,39,0.00,,,0.00,,2013-03-18 04:12:00,
2013-03-17 20:22:00,10.0,-9.0,-100.00,North,350,6.0,9.0,40,0.00,,,0.00,,2013-03-18 04:22:00,
2013-03-17 20:33:00,10.0,-9.0,-100.00,North,350,6.0,9.0,40,0.00,,,0.00,,2013-03-18 04:33:00,
2013-03-17 20:42:00,10.0,-9.0,-100.00,North,350,6.0,9.0,40,0.00,,,0.00,,2013-03-18 04:42:00,
2013-03-17 20:52:00,9.0,-10.0,-100.00,NNW,340,6.0,7.0,41,0.00,,,0.00,,2013-03-18 04:52:00,
2013-03-17 21:02:00,9.0,-10.0,-100.00,NNW,340,6.0,7.0,41,0.00,,,0.00,,2013-03-18 05:02:00,
2013-03-17 21:12:00,9.0,-10.0,-100.00,NNW,340,6.0,7.0,41,0.00,,,0.00,,2013-03-18 05:12:00,
2013-03-17 21:22:00,9.0,-10.0,-100.00,NNW,340,6.0,8.0,42,0.00,,,0.00,,2013-03-18 05:22:00,
2013-03-17 21:32:00,9.0,-10.0,-100.00,NNW,340,6.0,8.0,42,0.00,,,0.00,,2013-03-18 05:32:00,
2013-03-17 21:43:00,9.0,-10.0,-100.00,NNW,340,6.0,8.0,42,0.00,,,0.00,,2013-03-18 05:43:00,
2013-03-17 21:52:00,9.0,-9.0,-100.00,NW,325,6.0,9.0,42,0.00,,,0.00,,2013-03-18 05:52:00,
2013-03-17 22:02:00,9.0,-9.0,-100.00,NW,325,6.0,9.0,42,0.00,,,0.00,,2013-03-18 06:02:00,
2013-03-17 22:12:00,9.0,-9.0,-100.00,NW,325,6.0,9.0,42,0.00,,,0.00,,2013-03-18 06:12:00,
2013-03-17 22:22:00,9.0,-9.0,-100.00,NNW,340,6.0,9.0,42,0.00,,,0.00,,2013-03-18 06:22:00,
2013-03-17 22:32:00,9.0,-9.0,-100.00,NNW,340,6.0,9.0,42,0.00,,,0.00,,2013-03-18 06:32:00,
2013-03-17 22:42:00,9.0,-9.0,-100.00,NNW,340,6.0,9.0,42,0.00,,,0.00,,2013-03-18 06:42:00,
2013-03-17 22:52:00,9.0,-9.0,-100.00,NNW,340,6.0,9.0,42,0.00,,,0.00,,2013-03-18 06:52:00,
2013-03-17 23:02:00,9.0,-9.0,-100.00,NNW,340,6.0,9.0,42,0.00,,,0.00,,2013-03-18 07:02:00,
2013-03-17 23:12:00,9.0,-9.0,-100.00,NNW,340,6.0,9.0,42,0.00,,,0.00,,2013-03-18 07:12:00,
2013-03-17 23:22:00,8.0,-10.0,-100.00,NNW,345,5.0,7.0,42,0.00,,,0.00,,2013-03-18 07:22:00,
2013-03-17 23:32:00,8.0,-10.0,-100.00,NNW,345,5.0,7.0,42,0.00,,,0.00,,2013-03-18 07:32:00,
2013-03-17 23:42:00,8.0,-10.0,-100.00,NNW,345,5.0,7.0,42,0.00,,,0.00,,2013-03-18 07:42:00,
2013-03-17 23:52:00,8.0,-10.0,-100.00,NW,325,6.0,9.0,43,0.00,,,0.00,,2013-03-18 07:52:00,